Regional Weather Roundup
Issued by NWS

Current Version | Previous Version | Text Only | Print | Product List | Glossary On
Versions: 1 2 3 4 5 6 7 8 9 10 11 12 13 14 15 16 17 18 19 20 21 22 23 24 25 26 27 28 29 30 31 32 33 34 35 36 37 38 39 40 41 42 43 44 45 46 47 48 49 50
000
ASUS45 KCYS 201510
RWRWY

WYOMING REGIONAL WEATHER ROUNDUP
NATIONAL WEATHER SERVICE CHEYENNE WY
900 AM MDT FRI OCT 20 2017

NOTE:  "FAIR" INDICATES FEW OR NO CLOUDS BELOW 12,000 FEET
WITH NO SIGNIFICANT WEATHER AND/OR OBSTRUCTIONS TO VISIBILITY.

WYZ001-201600-
YELLOWSTONE NATIONAL PARK

CITY           SKY/WX    TMP DP  RH WIND       PRES   REMARKS
LK YELLOWSTONE   N/A     30  26  85 CALM      29.62F
W YELLOWSTONE  NOT AVBL

$$
WYZ002>013-054>058-071-098>099-201600-
NORTHERN WYOMING

CITY           SKY/WX    TMP DP  RH WIND       PRES   REMARKS
JACKSON        PTSUNNY   30  25  81 N6        29.60F WCI  24
CODY           FAIR      54  23  30 VRB3      29.50F
GREYBULL       FAIR      41  24  51 N3        29.49F
WORLAND        FAIR      57  31  37 S8        29.50F
SHERIDAN       FAIR      52  30  43 VRB5      29.45F
BUFFALO        FAIR      67  26  21 W10       29.51F
GILLETTE       FAIR      62  31  31 S25G33    29.50F
HULETT         FAIR      63  32  31 SW18G29   29.55S
NEWCASTLE      FAIR      61  30  31 SE16      29.61F

$$
WYZ014>020-022>026-101>103-201600-
CENTRAL WYOMING

CITY           SKY/WX    TMP DP  RH WIND       PRES   REMARKS
BIG PINEY      FAIR      41  27  57 E5        29.69F
PINEDALE       FAIR      45  30  57 SE6       29.71F
DUBOIS         FAIR      37  27  65 NW7       29.63F WCI  32
LANDER         FAIR      45  28  51 VRB6      29.58F
RIVERTON       FAIR      47  29  49 S6        29.59F
CASPER         FAIR      57  32  38 S18       29.66S
DOUGLAS        FAIR      64  33  31 VRB5      29.65F

$$
WYZ021-027>030-104>119-201600-
SOUTHERN WYOMING

CITY           SKY/WX    TMP DP  RH WIND       PRES   REMARKS
EVANSTON       FAIR      51  29  42 SW16      29.67F
KEMMERER       FAIR      45  32  61 S3        29.70F
FORT BRIDGER   FAIR      50  28  43 S9        29.71F
ROCK SPRINGS   FAIR      52  27  38 S16       29.70F
DIXON          FAIR      58  32  37 S20G26    29.81S
RAWLINS        FAIR      54  32  43 S14G21    29.76F
SARATOGA       FAIR      54  32  43 S14G20    29.81S
LARAMIE        FAIR      50  31  48 SW5       29.83F
CHEYENNE       FAIR      57  34  41 W5        29.78S
TORRINGTON     FAIR      47  37  68 VRB5      29.67F
PINE BLUFFS    FAIR      45  34  65 CALM      29.75F

$$



USA.gov is the U.S. government's official web portal to all federal, state and local government web resources and services.